User: anonymous   Login
Location: High Meadows Obseravatory
(40.7417°N, 111.5713°W)
Time: 23:06:03
(UTC-07:00)
Language:

BlueWalker 3 - Orbit

View from above orbital plane
View from above orbital plane
View from above satellite
View from above satellite

Ground track
Ground track

The orbit data is extracted from the following two-line orbital elements,

1 53807U 22111AL  23033.83459283  .00004002  00000-0  20206-3 0  9992
2 53807  53.2066 327.2365 0013161  10.0299 350.0958 15.19288179 22014
Epoch (UTC): 02 February 2023 20:01:48
Eccentricity: 0.0013161
inclination: 53.2066°
perigee height: 499 km
apogee height: 517 km
right ascension of ascending node: 327.2365°
argument of perigee: 10.0299°
revolutions per day: 15.19288179
mean anomaly at epoch: 350.0958°
orbit number at epoch: 2201

The dashed part of the orbit path shows where the satellite is in the earth's shadow,  

DLR